Theta_e
353 352 353 353 353 353 352 352 351 351 351 352 352 353 353 353 354 352 353 353 351 351 352 351 351 351 349 346 347 346 347 347 345 345 343 337 336 339 341 343 346 347 346 348 347 347 347 347 347 347 346 346 347 346 345 344 344 344 343 343 343 342 341 341 342 343 343 343 342 343 342 341 340 339 338 338 337 338 339 338 338 338 338 338 338
352 352 352 352 353 352 352 352 351 352 351 352 352 353 353 353 354 353 353 354 352 353 352 351 350 351 349 347 347 346 347 346 344 343 340 337 337 337 340 343 346 348 348 348 347 347 347 347 347 347 346 346 346 347 346 344 344 344 343 343 344 344 343 341 341 342 343 343 343 343 343 342 341 340 340 340 340 341 341 340 340 339 339 339 338
353 353 351 353 353 353 353 352 353 353 352 352 353 353 353 354 354 354 354 354 353 353 352 350 349 349 347 346 347 346 347 344 343 343 338 337 338 338 339 342 344 346 348 348 347 347 348 348 347 346 347 346 347 347 347 345 345 344 344 344 345 344 344 343 342 342 343 342 343 343 343 343 342 342 342 342 342 342 342 341 341 340 340 340 339
352 353 352 354 354 353 353 353 353 353 352 354 354 353 354 354 355 355 354 354 352 352 351 349 349 347 345 345 344 345 346 344 343 343 340 338 338 339 339 340 341 343 346 347 347 347 348 348 347 346 346 347 347 348 348 346 345 345 344 344 345 346 344 344 344 343 343 343 343 343 344 344 343 342 343 342 342 342 342 342 342 341 341 340 341
352 353 353 354 355 355 354 354 354 353 354 355 355 355 354 354 355 355 354 354 352 350 349 349 348 346 344 342 342 344 345 344 344 344 343 341 340 341 340 339 340 341 343 344 345 346 348 348 348 347 346 346 348 348 348 348 347 346 344 345 346 346 345 344 345 344 344 344 343 343 344 344 343 342 342 342 342 342 342 342 342 342 341 342 342
353 354 354 354 354 355 355 354 355 355 355 355 355 354 354 354 354 354 354 353 351 349 349 347 346 344 339 338 341 344 345 344 344 345 345 344 343 343 343 341 340 340 340 341 342 343 346 348 347 348 346 346 348 348 348 348 348 348 346 346 346 346 346 345 345 344 344 344 344 344 344 344 343 342 342 342 342 342 342 342 342 341 341 342 342
355 355 355 354 355 354 355 355 355 355 355 356 355 354 354 355 355 355 353 352 350 348 346 345 344 340 336 337 341 343 345 345 345 345 345 346 345 344 345 343 342 341 340 340 340 340 343 346 347 347 347 347 347 347 348 348 347 347 346 346 346 346 346 345 345 345 345 344 344 344 344 343 343 343 343 343 342 342 343 342 342 342 341 341 341
356 355 355 354 354 354 354 355 355 355 355 355 355 354 355 355 355 355 353 351 350 348 345 345 343 339 338 339 340 341 344 345 346 346 346 346 347 346 347 347 346 345 344 341 339 337 340 344 345 345 346 347 347 347 347 347 347 346 345 345 345 345 345 346 345 345 345 344 344 344 344 344 343 343 343 343 342 342 343 342 342 342 342 342 342
354 352 352 352 354 355 354 355 356 355 356 356 354 355 357 356 355 353 352 351 350 349 346 344 341 337 338 341 340 341 344 346 347 347 347 347 348 349 348 349 350 350 349 344 337 335 337 342 344 344 346 346 347 347 346 346 347 346 346 346 345 345 345 345 345 345 345 344 344 343 344 344 343 343 343 343 342 343 343 343 343 342 342 343 342
353 350 349 351 353 355 355 356 356 355 355 356 356 356 356 356 356 352 352 352 349 345 342 341 341 340 339 342 342 343 344 346 347 347 347 348 349 349 349 350 350 350 350 347 341 337 336 340 344 344 344 346 347 347 347 346 347 347 347 346 346 345 345 345 344 344 344 344 344 344 344 344 344 344 344 343 343 343 343 343 342 342 342 342 342
352 351 349 350 353 355 356 356 356 356 355 356 356 356 356 356 356 351 350 351 348 341 338 339 339 339 340 341 342 342 343 345 347 347 347 348 348 349 349 350 350 350 350 350 347 344 339 337 342 344 343 345 346 346 346 346 347 347 347 346 347 347 346 345 345 344 344 344 344 345 344 345 344 345 344 343 343 343 343 343 342 342 342 342 342
351 352 349 349 354 355 356 356 357 357 356 356 356 355 357 357 355 351 349 349 347 341 339 339 339 336 337 339 340 341 342 344 344 346 346 346 348 348 348 348 349 350 350 349 349 348 343 340 340 341 341 343 343 344 344 345 345 345 346 347 347 347 347 346 345 345 345 344 344 344 344 344 344 344 344 343 343 343 343 343 343 342 342 342 342
351 352 350 348 353 355 355 355 357 358 357 356 357 357 357 356 354 352 350 349 347 343 339 339 339 336 337 339 339 340 342 342 342 344 345 345 345 347 346 346 347 349 349 349 348 349 347 346 344 342 341 341 341 342 342 343 343 342 345 347 347 346 346 346 346 346 345 345 344 344 344 344 344 344 344 344 344 343 343 343 343 342 340 341 342
350 351 351 348 350 355 356 355 356 358 358 358 358 359 358 354 352 352 351 351 348 343 338 336 337 336 337 339 337 337 340 341 342 343 344 344 343 345 345 344 345 346 349 349 347 347 348 347 347 344 341 340 340 341 341 341 341 341 343 346 347 346 346 346 346 346 345 345 345 345 344 344 344 344 344 344 343 343 342 340 337 333 332 337 341
352 351 351 349 348 353 358 357 357 359 359 358 359 361 358 353 352 352 351 352 347 343 341 339 339 338 339 345 344 341 339 339 341 343 343 344 343 344 345 345 344 345 346 347 346 346 346 347 347 346 343 343 342 342 342 342 341 341 342 345 346 346 346 345 345 346 345 345 345 345 344 344 344 343 344 342 340 338 333 328 323 320 321 327 330
354 353 353 352 348 350 355 356 358 359 358 359 360 360 357 353 353 353 351 351 347 343 343 340 339 339 342 350 349 345 346 342 340 342 343 342 342 342 343 343 343 344 345 346 346 345 346 346 346 346 346 345 344 343 344 343 342 343 344 344 344 345 346 345 345 345 344 344 345 345 344 343 341 339 337 332 325 322 319 316 316 316 316 317 318
355 355 355 354 351 350 352 353 356 357 356 357 359 357 355 352 353 353 350 352 350 343 341 340 339 339 343 350 348 350 356 348 340 343 342 342 342 340 340 339 340 342 344 345 345 343 343 343 343 344 345 345 345 345 345 341 338 340 343 343 342 342 343 343 344 344 344 344 342 339 336 332 328 325 322 318 316 316 316 316 316 316 316 316 316
356 357 357 355 354 354 354 353 355 357 355 356 357 356 354 352 351 352 351 353 349 341 339 339 339 339 340 347 347 350 354 348 346 347 344 341 341 341 340 339 338 339 342 343 342 341 341 341 340 342 342 343 344 344 344 340 334 333 335 337 339 339 337 335 336 337 336 334 328 323 320 318 317 316 316 315 316 316 316 316 316 317 318 318 319
356 357 358 355 355 356 355 355 358 359 359 357 356 356 354 352 352 352 353 354 348 341 340 338 339 340 340 342 343 345 346 345 350 351 348 344 341 340 341 340 338 338 338 339 339 339 338 340 342 342 341 341 341 341 341 341 337 331 326 325 329 331 328 324 323 322 321 320 317 317 318 318 318 318 318 317 317 316 317 317 318 319 321 322 323
356 357 359 357 356 357 356 357 360 361 360 357 355 355 355 354 356 353 353 354 348 345 344 339 337 338 338 341 341 343 343 343 343 346 351 351 345 342 342 341 338 337 338 338 339 338 339 341 342 341 341 340 339 337 337 335 332 327 321 318 318 320 319 317 316 316 316 318 320 322 323 323 324 323 323 323 322 322 322 322 323 324 325 327 327
356 357 359 358 357 358 356 358 361 361 360 358 356 357 357 356 356 355 354 354 349 346 345 342 339 336 336 341 342 340 342 344 342 341 348 351 351 347 343 341 339 339 338 338 338 338 339 341 340 338 337 339 337 336 336 332 326 322 320 318 317 316 316 316 316 318 321 323 325 326 326 327 327 327 328 327 328 327 328 328 328 328 328 329 329
357 358 360 359 357 358 357 358 362 361 360 359 358 359 359 357 356 355 354 355 351 346 344 345 341 337 335 338 343 341 339 344 343 342 343 346 349 348 343 341 341 340 339 338 338 338 339 339 338 337 336 337 338 337 336 334 329 324 322 321 320 319 319 319 321 323 325 327 327 327 327 328 328 328 329 329 329 329 329 329 329 329 330 330 330
357 358 359 359 357 358 358 358 361 362 361 360 359 359 358 358 358 356 354 355 351 344 343 346 343 342 339 336 341 343 340 342 343 341 343 343 346 348 343 341 341 340 339 337 336 337 339 339 338 338 337 337 338 337 336 335 333 330 327 325 325 324 325 325 326 327 327 327 327 327 328 328 328 329 329 329 329 330 329 329 329 330 330 329 330
357 357 358 358 357 358 359 358 360 362 362 360 359 359 358 358 359 359 356 354 352 345 343 347 346 344 342 337 339 343 341 343 342 340 342 342 345 347 343 341 342 341 338 336 335 335 337 339 337 337 336 337 337 337 336 336 336 335 333 331 329 327 328 328 328 328 328 328 328 328 328 329 329 329 329 329 330 330 329 330 330 329 330 329 330
358 357 357 357 357 358 359 359 360 361 363 361 359 359 359 358 359 359 357 355 354 349 343 345 346 344 344 341 340 342 340 341 341 342 343 342 343 344 342 342 342 339 338 336 335 335 336 336 335 334 336 337 337 337 337 336 337 337 336 335 332 330 328 329 329 328 329 329 329 329 329 329 330 329 329 330 329 330 330 329 330 329 329 330 330
358 357 357 358 358 358 358 359 360 361 363 362 360 359 359 358 359 360 359 356 355 353 346 343 344 345 346 345 342 339 338 340 340 341 342 342 343 342 342 343 341 338 337 337 336 337 337 336 335 334 336 337 337 337 337 336 337 337 336 336 335 333 330 329 329 330 329 329 329 329 329 329 329 329 330 330 329 330 330 329 329 329 329 330 330
358 358 358 358 358 359 359 358 360 360 362 362 360 359 359 359 359 359 360 357 356 355 351 345 341 343 347 348 345 339 337 340 340 340 341 341 340 339 340 346 347 343 339 339 339 337 337 336 337 336 336 336 336 337 337 337 337 337 337 337 338 337 334 332 332 332 333 332 331 330 329 329 329 329 329 329 329 329 329 329 329 328 326 326 326
359 359 359 359 359 360 360 359 360 360 361 361 360 358 359 360 359 359 360 358 357 355 354 349 341 339 342 346 347 343 339 341 342 340 340 340 339 337 338 342 348 349 347 346 342 339 337 337 337 337 336 335 336 336 337 337 337 338 337 338 339 338 336 335 335 335 336 335 334 333 331 330 329 329 329 329 329 329 329 329 327 325 323 322 323
359 360 360 360 359 359 360 360 360 360 361 361 360 358 358 360 359 359 359 358 358 356 355 352 347 340 337 338 344 346 342 342 344 343 341 340 338 339 338 337 342 350 353 353 348 340 339 339 337 336 336 336 336 336 337 337 337 338 337 338 339 339 337 335 335 336 336 337 336 335 333 332 331 330 330 330 329 329 328 327 325 323 322 322 322
359 359 361 361 360 360 360 360 360 360 360 360 359 358 358 359 359 359 358 357 358 357 355 354 351 346 341 335 337 344 345 344 344 345 344 342 339 338 341 339 339 344 347 352 352 343 339 340 337 335 335 336 337 336 337 338 337 337 337 337 338 338 337 336 336 337 336 337 337 336 335 333 331 331 330 329 329 328 327 326 324 323 322 321 322
360 360 361 361 361 360 360 361 360 360 360 359 360 359 358 359 360 360 359 358 358 359 357 355 352 349 347 342 337 339 344 345 345 344 343 343 341 338 340 341 340 341 341 347 352 346 340 341 339 337 336 336 336 337 337 337 337 337 337 337 338 337 337 337 337 337 337 337 337 336 335 333 330 329 329 328 327 326 327 327 327 325 323 321 321
361 361 361 360 361 361 360 360 360 360 360 360 360 360 359 359 359 359 359 359 359 359 358 357 354 351 350 347 344 340 340 342 344 344 343 344 343 340 340 341 341 341 340 343 348 346 342 341 340 338 338 337 336 337 337 337 337 338 337 337 338 337 337 337 337 338 338 337 337 336 335 334 331 328 327 326 326 327 328 329 327 325 322 320 320
362 362 362 361 361 360 360 360 360 360 360 360 361 361 360 360 361 361 360 360 359 359 359 358 356 354 351 349 348 344 340 339 340 343 343 344 344 343 341 341 341 342 342 341 344 344 344 342 341 340 339 337 337 338 337 337 338 338 338 337 339 339 338 338 337 336 336 337 337 337 336 334 332 327 326 327 328 329 330 329 328 325 321 319 321
362 362 362 362 361 360 360 361 361 361 360 361 361 361 361 361 361 361 361 361 360 359 359 359 357 355 353 350 349 348 345 342 338 337 341 344 345 344 342 342 342 342 342 341 342 343 343 343 343 343 341 338 337 338 338 338 339 339 338 338 339 339 338 338 336 334 334 336 338 337 335 333 331 329 330 331 331 331 331 331 330 326 321 320 323
362 362 360 360 361 361 360 360 361 362 362 361 362 363 362 362 362 363 362 361 361 360 359 360 358 356 354 352 350 349 348 347 343 338 338 342 344 345 343 342 342 342 342 342 342 342 343 342 342 343 342 340 339 339 339 339 339 339 339 339 339 339 339 338 337 335 333 335 337 336 334 333 333 334 334 334 334 333 332 332 332 329 322 321 324
361 362 361 359 359 361 361 360 361 361 362 362 362 363 362 362 362 362 363 362 361 360 359 359 359 358 356 354 353 351 349 348 347 343 340 340 341 344 345 343 342 342 342 342 342 341 342 342 341 341 342 342 341 341 341 340 340 340 339 339 339 340 340 339 339 338 336 335 336 337 336 336 336 336 336 336 335 335 333 334 334 331 325 324 327
358 360 362 360 359 360 362 362 361 360 361 363 363 363 363 363 363 362 362 361 361 360 359 359 358 358 357 355 353 353 351 349 348 347 345 342 341 342 344 344 343 343 343 342 342 341 342 342 342 340 340 342 343 342 341 340 340 340 340 339 339 340 340 340 340 340 338 337 337 338 338 337 337 337 336 336 336 335 335 335 333 331 329 329 329
358 359 360 361 360 359 360 361 362 362 361 361 362 362 363 363 363 362 362 361 360 360 360 359 358 357 357 356 355 353 352 351 349 347 347 346 343 342 342 344 344 343 343 342 343 342 342 342 343 341 340 341 342 342 342 341 341 340 340 340 340 340 340 341 341 341 339 338 339 339 338 337 337 337 337 337 337 336 336 335 334 333 332 331 330
358 359 360 361 361 360 358 358 361 363 363 362 363 363 364 363 363 363 362 361 360 359 360 360 358 358 357 356 355 354 353 352 350 349 347 346 346 344 343 343 344 344 344 343 343 343 343 343 343 343 342 341 341 342 343 342 341 341 340 341 342 341 341 341 341 341 340 339 340 340 339 339 338 338 338 337 337 337 336 336 334 334 333 332 331
359 359 359 360 361 360 360 359 359 361 363 363 363 363 364 363 363 363 362 361 360 359 359 359 359 358 357 357 356 355 354 353 351 350 349 347 347 346 345 344 345 345 345 344 344 344 345 344 343 343 343 343 343 343 343 343 342 342 341 341 341 341 341 341 341 341 341 340 341 340 339 339 338 338 338 338 337 337 337 336 334 334 333 332 332
358 358 358 359 360 360 361 361 360 360 361 363 364 364 364 364 363 363 362 362 362 361 360 360 360 359 358 357 357 356 354 353 353 352 350 349 348 347 347 346 345 346 346 344 344 344 345 345 345 344 343 344 343 343 344 344 343 342 341 341 341 341 340 340 340 340 340 340 340 340 340 339 339 339 338 338 337 337 336 335 334 334 333 332 332
358 358 357 357 359 360 361 362 362 361 361 362 363 364 363 363 363 363 363 362 362 361 361 360 360 360 359 358 358 356 356 355 354 353 352 350 349 347 346 345 345 346 346 346 345 344 344 346 345 345 344 343 343 343 343 343 343 343 342 342 341 341 341 341 341 340 339 339 340 340 340 340 340 339 339 338 338 337 337 336 336 335 332 331 331
360 360 359 358 359 360 361 362 362 363 362 362 363 363 364 363 363 363 362 363 363 363 362 361 360 359 359 359 358 358 357 356 355 355 353 352 351 349 348 346 345 345 344 345 345 344 344 344 344 345 345 344 344 343 342 342 342 343 343 342 341 341 341 342 342 342 342 341 340 341 340 341 341 340 340 340 339 339 338 337 335 333 331 331 332
361 361 360 360 359 359 362 362 362 363 363 363 363 363 363 363 363 363 363 363 363 363 363 362 361 360 359 359 359 359 358 357 356 356 355 354 354 352 350 349 347 345 343 343 343 344 344 344 343 344 344 345 344 344 343 342 342 343 343 343 342 342 341 341 341 342 342 342 342 342 341 341 342 342 341 341 340 339 339 336 333 332 331 332 332
361 362 363 362 361 360 361 363 363 363 363 364 363 363 363 363 363 363 362 362 363 363 363 363 362 361 360 359 359 359 359 359 358 358 356 355 355 354 353 351 349 348 346 344 343 342 342 343 342 342 342 343 343 343 344 343 342 342 343 344 343 343 342 342 342 341 341 342 342 343 342 342 343 343 342 342 341 340 338 335 332 331 332 333 332
360 362 363 363 362 361 361 361 363 363 363 364 364 364 363 363 363 363 363 362 362 363 363 363 362 361 360 359 359 359 359 359 359 359 358 357 356 356 354 352 351 349 348 346 345 343 342 342 342 342 341 341 342 342 342 343 343 342 343 344 344 343 344 343 343 342 342 342 342 342 343 343 342 343 343 341 341 340 337 334 332 332 333 333 330
360 360 362 362 363 363 362 361 362 363 364 365 365 365 365 364 364 364 363 363 362 362 362 362 362 362 361 360 360 359 359 359 359 359 359 358 357 356 355 353 352 350 350 348 347 345 344 343 342 342 340 340 341 341 341 342 343 342 341 342 342 343 343 343 343 343 343 343 343 343 342 342 341 342 342 340 340 338 336 333 332 332 332 330 327
361 361 360 361 361 363 363 363 362 362 363 365 366 366 366 366 365 365 364 363 363 362 361 362 362 362 362 361 361 360 359 359 358 359 359 359 358 357 356 354 353 351 350 350 349 347 346 344 343 342 342 341 341 341 342 342 343 342 342 341 342 343 343 343 343 343 344 343 343 343 343 342 341 341 341 339 338 337 335 333 331 329 328 327 325
360 361 360 361 360 361 363 363 364 363 362 364 365 367 368 368 367 366 366 364 363 363 362 362 361 362 362 361 361 360 360 359 359 359 359 359 358 357 356 355 353 352 351 351 350 348 347 346 345 344 343 342 342 342 343 343 343 343 343 343 343 344 343 342 342 343 344 344 343 343 342 342 341 340 340 339 337 335 332 330 328 326 326 325 324
361 361 361 361 361 361 362 363 364 364 363 363 364 366 368 369 369 369 367 365 364 364 363 363 362 362 362 362 361 361 360 360 359 358 358 359 358 357 357 355 354 352 352 352 351 350 349 348 347 345 345 344 344 344 344 344 344 344 344 344 343 343 343 342 342 342 343 343 343 343 342 341 341 340 338 337 335 332 329 327 327 326 325 324 323
363 362 362 363 362 362 362 363 364 365 365 365 364 365 366 368 369 370 368 366 364 364 364 364 363 363 362 363 363 362 362 362 360 360 359 359 358 357 357 356 355 354 353 353 351 351 350 349 348 347 346 346 345 346 346 345 345 345 345 344 344 343 343 342 342 342 342 342 342 342 342 341 340 340 337 335 332 329 327 326 326 325 324 324 323
Wind_Speed
11 10 9 8 7 8 6 5 5 5 4 2 4 5 3 3 2 2 2 1 1 2 2 3 5 5 6 8 12 15 16 16 13 12 12 11 12 12 12 12 11 11 10 10 9 9 9 9 9 9 8 9 9 8 8 9 9 8 8 8 7 6 6 5 5 5 5 5 5 5 4 3 3 3 3 2 2 1 1 1 1 1 1 1 1
12 11 11 9 8 8 6 6 5 3 3 2 3 4 3 3 3 2 1 2 2 2 1 4 8 7 6 7 11 15 17 16 13 12 13 12 13 12 12 12 12 11 10 10 10 9 9 9 9 8 8 8 8 7 8 8 8 9 9 8 7 7 6 6 6 5 5 5 5 5 4 4 3 3 3 2 2 2 2 2 2 1 1 1 1
14 13 12 10 9 8 6 6 4 4 3 2 3 2 1 2 3 3 1 3 3 3 3 5 7 7 7 6 9 15 17 15 13 13 12 13 13 12 12 12 11 10 10 10 10 10 10 10 9 9 9 8 8 7 7 7 7 8 9 8 7 7 7 6 6 6 6 6 6 5 5 5 4 4 4 4 4 4 4 4 3 3 3 3 3
14 12 12 11 9 9 7 7 5 4 3 3 3 2 1 1 2 3 2 1 3 5 4 4 5 4 5 5 6 15 18 15 14 13 12 12 13 12 12 12 11 10 10 10 10 11 11 10 10 10 9 9 8 8 7 7 6 7 9 9 8 7 7 7 7 6 6 6 6 6 5 5 5 5 5 5 5 5 5 5 5 5 5 5 4
14 13 12 11 10 9 8 6 5 4 3 3 1 0 2 1 2 2 2 2 3 6 4 3 5 5 3 3 6 18 20 16 15 13 11 12 12 11 11 11 11 10 10 10 10 10 11 11 11 10 10 9 9 9 8 8 7 7 8 9 8 8 8 8 7 7 7 7 6 6 5 5 5 5 6 5 5 5 5 6 6 6 6 6 5
15 14 11 10 9 8 8 7 5 4 4 2 0 1 2 1 2 2 2 2 4 4 2 3 4 3 6 8 14 21 20 16 14 11 10 10 10 10 10 11 11 10 10 10 9 10 10 10 11 11 10 10 10 10 9 9 8 8 9 9 8 8 8 9 8 8 8 7 7 6 5 5 5 5 5 5 5 6 5 6 6 6 6 6 6
16 15 12 10 8 8 8 7 6 5 4 2 1 1 2 3 2 1 2 3 4 4 4 4 4 5 10 11 15 19 17 15 13 11 9 9 10 9 9 10 10 9 9 8 9 9 10 10 10 10 11 11 11 11 10 10 9 9 9 9 9 9 9 9 9 9 9 8 8 7 6 6 6 6 5 5 6 6 6 6 6 6 7 7 7
15 15 14 12 8 8 7 6 6 6 3 2 2 2 3 4 2 2 3 4 4 5 5 4 4 5 11 11 12 15 15 15 13 11 9 8 9 9 9 10 9 8 7 7 7 8 9 10 9 10 11 11 11 11 11 10 10 10 10 10 10 10 10 10 10 9 9 8 8 7 7 7 6 6 6 6 6 6 7 7 7 7 7 7 8
15 14 15 14 9 7 7 6 7 5 4 4 3 2 3 3 3 3 5 5 3 4 4 3 2 8 13 13 12 12 14 14 12 11 10 8 9 9 8 9 9 8 7 6 6 7 9 10 9 9 10 11 11 11 11 11 11 11 10 10 11 11 10 10 10 10 9 8 8 8 7 7 7 7 7 7 6 7 7 7 8 7 7 7 9
16 13 14 15 9 6 7 7 7 6 5 5 4 4 4 3 3 4 6 4 1 1 3 3 8 13 14 14 13 12 11 11 11 10 9 10 10 10 9 8 9 8 7 7 6 6 8 10 10 10 10 10 11 11 11 11 11 11 11 11 11 10 10 10 10 10 9 8 8 7 7 7 7 6 6 6 6 6 7 8 9 8 7 7 8
17 14 14 16 11 7 7 7 7 7 7 5 4 6 5 5 4 4 6 4 1 3 6 9 13 13 13 14 13 11 11 11 11 9 9 10 11 12 11 10 9 9 9 8 7 6 7 10 10 10 10 10 11 11 11 11 11 11 11 11 11 11 10 10 9 9 9 8 8 7 7 7 7 6 6 6 5 6 7 8 8 7 7 7 8
17 16 14 16 14 9 7 7 7 7 7 6 6 6 6 6 4 4 7 5 2 3 4 7 10 10 11 12 12 10 10 11 10 9 9 10 11 12 12 11 11 12 11 9 8 7 7 9 10 9 9 10 10 10 11 11 11 11 11 11 11 11 10 10 9 9 9 8 8 8 7 7 6 6 6 6 5 5 6 7 7 7 7 7 7
16 17 16 16 16 11 9 9 8 8 7 6 7 7 6 6 5 6 8 6 5 4 3 5 5 6 8 9 10 9 9 11 11 11 9 9 11 12 13 13 13 14 12 9 9 8 8 8 9 9 9 10 10 10 10 10 10 10 10 10 10 10 10 9 8 9 8 7 7 7 8 7 6 6 6 6 5 5 6 6 6 6 5 4 4
15 18 17 16 17 13 10 11 10 9 8 6 8 7 6 6 6 8 9 6 5 5 5 6 5 6 8 6 6 6 7 9 10 11 10 9 11 12 14 13 12 14 14 11 9 8 8 7 8 8 8 9 9 9 9 9 9 9 9 9 9 9 8 7 7 7 6 6 7 6 6 6 6 6 6 5 5 5 4 3 3 2 1 1 1
15 17 18 16 17 16 12 12 12 10 10 9 9 9 7 7 8 9 9 6 6 7 5 5 6 8 7 3 2 3 4 5 7 11 12 11 11 12 14 14 11 13 14 12 10 9 8 8 7 7 7 8 7 7 8 7 6 6 8 8 8 7 6 6 6 6 5 5 6 6 5 6 5 5 5 4 4 3 3 1 1 1 2 2 2
16 18 18 17 17 17 16 14 13 12 11 11 11 11 9 7 9 10 9 7 7 7 5 4 7 8 5 2 1 3 2 4 6 10 12 12 12 12 13 12 10 12 14 13 11 9 8 7 7 7 7 7 6 6 6 5 4 5 6 6 6 6 6 6 6 6 5 5 6 6 6 6 5 4 4 3 3 3 3 3 3 3 3 3 3
17 18 19 19 17 17 17 16 14 13 12 12 11 11 9 8 9 11 10 7 7 8 6 5 6 6 5 3 2 2 2 4 5 5 9 13 13 10 9 8 9 12 14 14 13 10 8 7 7 6 6 5 5 5 6 5 4 5 6 5 5 5 5 5 6 6 6 6 6 5 5 5 4 3 3 3 2 2 3 3 3 3 3 2 2
18 19 19 20 18 17 17 16 15 14 12 11 12 11 10 9 10 11 11 8 8 11 9 7 5 4 5 3 1 1 1 4 5 1 5 11 11 10 7 6 8 11 14 15 13 9 7 8 8 7 5 4 4 5 6 5 4 4 5 5 5 5 5 4 5 6 6 6 5 5 5 4 4 3 3 3 2 2 2 2 2 2 2 2 2
19 20 20 20 19 18 18 16 15 14 13 12 13 12 10 9 10 11 11 9 10 13 11 9 8 6 7 2 2 1 2 4 6 3 4 6 8 10 8 6 7 9 13 15 12 9 9 9 10 9 6 4 4 4 5 5 4 3 3 4 4 4 4 5 6 6 6 6 5 4 4 4 3 3 3 2 1 1 1 1 1 1 1 2 2
21 22 21 20 20 20 18 17 17 16 14 14 13 12 11 10 11 11 11 9 11 12 12 11 9 8 9 5 0 2 4 5 8 8 5 2 3 6 6 6 7 9 11 14 14 11 11 12 12 10 8 7 5 4 4 3 3 4 2 3 4 4 5 5 6 6 6 5 5 4 4 4 3 3 3 2 2 1 1 1 1 2 2 3 4
23 23 22 21 21 21 20 19 19 17 16 15 13 13 12 12 13 13 11 10 11 11 12 11 7 7 11 8 2 3 4 4 7 8 5 3 2 3 6 7 8 10 12 15 16 14 13 15 13 10 8 8 8 5 3 2 3 4 3 4 4 4 6 6 6 6 5 5 4 4 3 3 3 2 2 1 1 0 0 1 2 3 4 4 5
24 23 23 23 23 22 21 21 21 19 17 16 15 15 14 13 14 14 13 12 12 11 11 10 7 8 12 10 6 5 5 4 5 6 4 4 3 3 8 11 9 10 12 16 20 17 16 16 13 10 9 9 9 7 4 3 4 4 5 5 5 5 6 6 6 6 6 5 4 4 3 3 2 2 1 1 1 1 2 2 3 4 4 5 6
25 25 25 24 24 24 22 21 21 20 18 17 16 16 15 14 15 15 15 15 14 12 12 12 10 9 10 11 10 8 7 5 6 8 6 4 3 3 9 14 15 14 12 15 20 19 18 17 14 12 11 10 11 10 7 5 5 5 6 6 5 6 6 6 7 6 6 5 5 4 4 4 3 3 3 3 3 4 4 5 6 7 7 8 9
26 26 26 26 26 25 24 22 22 21 20 18 17 16 15 15 16 17 17 16 15 14 14 15 14 12 11 12 12 11 10 7 7 9 9 8 7 6 8 10 12 13 13 16 19 17 16 16 15 13 11 11 13 13 10 7 6 5 6 6 6 7 7 7 7 7 7 6 6 6 6 5 5 5 4 5 5 6 7 7 9 10 10 11 11
29 28 28 27 27 27 26 24 23 23 22 20 18 17 15 17 19 19 18 17 16 15 15 17 17 14 13 13 11 13 14 10 10 11 10 10 9 7 6 3 7 10 12 16 18 16 13 13 13 12 13 14 14 15 13 10 9 7 6 7 7 8 8 8 9 8 8 8 8 7 7 7 7 7 7 7 8 8 9 10 11 11 12 13 13
32 31 29 28 28 28 27 27 25 24 24 23 21 19 17 17 20 20 19 19 18 17 15 17 19 16 15 14 11 14 16 12 12 13 12 11 11 9 5 1 7 11 11 13 15 16 15 14 12 11 13 15 15 16 15 13 11 9 8 8 9 10 9 9 9 9 9 9 9 9 9 9 9 9 9 10 10 11 12 12 13 13 13 13 13
31 31 28 28 28 28 28 27 26 24 24 24 23 22 20 19 20 22 21 20 20 19 17 16 19 20 19 17 13 15 17 13 13 14 13 13 14 14 9 3 4 5 6 9 12 15 17 15 14 14 15 16 17 17 17 15 13 12 10 10 11 12 11 10 10 10 10 10 11 11 11 11 11 11 12 12 13 13 14 14 14 13 13 12 11
30 30 29 28 28 29 29 28 27 26 25 25 24 23 23 21 22 23 22 22 21 21 20 18 19 21 22 20 17 17 18 15 15 16 14 14 14 14 14 11 6 2 3 5 7 12 16 16 15 17 18 19 19 19 18 17 15 13 13 12 13 14 13 12 11 11 11 12 12 12 12 13 13 13 14 14 14 15 15 14 14 13 12 11 10
30 29 29 29 28 29 30 29 28 28 27 26 25 24 25 23 23 24 24 23 23 23 23 21 20 21 22 23 22 21 20 18 16 16 14 15 15 14 16 17 13 7 4 3 6 11 15 17 17 18 20 22 23 22 21 19 16 15 15 15 14 14 14 13 13 13 13 13 13 13 13 13 14 14 15 14 14 14 14 14 13 12 11 11 10
31 30 29 29 29 29 30 30 30 30 29 28 27 26 26 26 24 25 25 24 24 24 25 24 22 21 21 23 24 24 23 21 18 16 14 15 17 16 15 17 17 13 9 5 6 12 17 17 18 19 20 23 25 25 23 20 18 17 17 17 16 15 15 14 13 13 14 15 14 13 13 13 14 14 14 14 14 13 13 13 12 11 10 10 10
32 32 31 31 31 31 32 31 31 31 30 29 29 29 28 28 27 26 26 25 25 25 26 26 25 23 23 23 24 25 25 24 21 18 15 14 16 18 16 16 17 17 16 10 5 11 17 17 18 19 20 23 26 26 24 21 19 18 18 18 18 17 16 15 14 14 15 16 15 14 13 13 14 14 14 13 13 13 12 12 11 10 10 10 10
32 32 33 33 33 33 33 33 32 32 32 31 31 31 30 30 30 30 29 28 28 27 27 28 27 26 25 25 25 26 26 26 24 21 18 15 16 18 19 19 18 18 19 15 8 10 15 15 15 17 19 22 25 27 25 23 21 20 20 20 18 17 18 18 17 16 17 17 16 16 15 15 15 14 14 14 13 12 12 12 11 11 10 10 9
34 33 33 34 35 34 34 34 34 33 33 33 32 32 32 32 32 32 31 30 30 29 28 29 29 28 27 27 27 26 25 26 27 25 21 18 18 20 20 21 22 21 20 20 15 13 16 16 14 13 15 20 24 27 26 24 22 21 20 20 19 19 19 20 20 21 20 18 18 18 18 17 16 15 14 13 13 12 12 11 11 12 11 9 9
35 35 34 34 35 36 35 34 35 35 34 34 34 34 34 34 33 33 33 33 32 31 30 30 31 30 29 29 29 28 27 26 28 28 26 22 21 22 23 23 24 25 24 23 21 17 18 20 17 12 13 20 25 25 26 25 22 21 20 20 21 21 21 21 21 22 21 20 20 19 18 17 15 15 14 13 13 13 12 11 12 13 12 11 10
35 36 36 35 34 35 36 35 35 35 35 35 35 35 35 35 35 34 34 34 34 33 32 32 32 32 31 31 31 31 30 28 29 30 30 28 24 24 25 26 26 27 26 26 24 21 20 23 22 17 15 21 25 23 24 24 22 21 22 22 23 23 22 22 21 21 21 21 21 18 17 16 16 16 15 15 14 14 13 13 13 14 13 12 12
35 35 36 36 35 34 36 37 36 36 36 37 37 37 37 37 37 36 35 35 35 35 35 35 34 34 33 33 33 33 32 31 31 31 32 32 30 28 26 27 28 28 28 28 28 26 23 22 25 24 20 21 23 22 22 24 24 24 24 24 24 24 24 23 22 22 21 21 20 18 17 18 18 18 17 16 16 15 15 15 14 14 13 13 14
35 35 35 36 36 36 36 37 38 38 38 38 38 38 38 38 38 38 37 36 36 36 37 36 36 36 36 36 36 35 33 33 33 33 34 34 34 33 30 29 30 30 29 29 30 29 26 24 25 26 24 22 22 21 22 24 25 26 26 25 25 25 24 23 23 22 20 20 19 19 19 19 19 19 18 18 17 17 17 16 14 14 13 13 13
35 35 36 36 38 38 38 38 38 39 40 39 40 40 39 39 38 38 38 38 37 37 37 37 37 37 37 38 37 36 36 36 36 36 36 35 35 35 34 32 31 31 31 31 30 30 29 28 27 26 26 25 24 23 23 24 26 27 26 25 25 25 24 24 24 22 20 20 20 20 19 19 20 20 20 19 19 18 18 16 14 14 14 13 10
36 36 36 37 38 39 40 40 39 39 40 40 41 41 40 39 38 38 38 38 38 37 37 38 38 38 38 39 39 38 38 39 39 38 37 37 36 36 36 35 32 32 32 31 31 31 31 30 28 27 27 26 26 26 24 24 26 27 27 26 25 26 26 25 25 24 22 22 22 21 20 20 20 20 20 20 19 18 17 16 16 16 14 12 9
38 38 37 38 39 39 40 41 41 40 39 41 41 40 40 39 39 39 39 39 38 38 38 38 38 39 40 40 40 40 40 41 41 40 39 39 37 36 36 35 33 32 32 32 31 31 31 30 29 29 28 27 27 26 24 23 26 28 30 30 28 28 27 26 26 25 24 24 24 23 22 21 20 20 21 21 20 19 18 17 16 16 15 12 11
40 40 39 38 38 39 39 39 40 40 40 41 41 41 41 41 40 40 40 40 39 39 38 38 38 39 40 40 41 41 42 42 42 42 41 41 39 38 37 37 35 34 33 33 32 31 31 29 28 28 27 27 28 27 24 26 29 31 31 30 29 28 28 27 27 27 26 25 25 25 24 23 22 21 21 22 21 19 18 17 17 17 15 13 11
40 40 39 38 38 38 39 38 39 41 42 42 42 42 43 42 42 40 39 40 40 40 39 38 38 39 40 40 41 42 42 43 43 43 43 43 42 42 40 39 39 37 35 33 33 33 31 28 28 27 24 26 30 31 30 31 31 30 29 29 28 27 25 24 25 27 28 27 26 26 26 26 24 22 22 23 21 19 18 18 17 17 15 12 12
39 39 39 39 39 38 38 39 40 41 42 43 42 43 44 44 43 41 39 40 40 40 40 39 39 39 39 40 40 40 41 43 43 44 44 44 44 44 43 42 42 42 40 37 35 35 33 30 29 28 26 28 31 33 33 32 30 30 30 30 29 26 23 20 18 20 24 27 27 27 27 27 25 23 23 24 22 20 19 18 17 15 14 14 14
38 38 39 40 40 38 38 39 41 41 42 44 44 44 45 45 45 44 41 40 39 40 40 40 40 40 39 39 39 39 40 42 44 45 45 45 46 45 45 45 44 45 45 43 41 38 36 33 30 30 31 32 31 32 34 33 31 31 31 30 30 28 26 23 20 20 21 23 25 27 28 27 25 24 25 25 24 22 20 18 16 16 16 16 16
38 38 39 40 41 40 38 38 40 42 43 44 44 45 45 46 47 46 44 41 40 40 40 41 42 41 40 38 38 38 39 40 42 44 45 46 46 46 47 47 47 48 48 48 47 45 42 39 36 36 38 36 33 35 36 34 33 32 30 30 31 30 28 27 28 27 24 21 23 25 26 26 25 23 25 26 24 23 22 19 17 16 17 19 18
37 38 38 39 40 41 40 39 39 41 42 43 44 45 46 47 47 48 47 43 40 39 39 40 41 40 40 39 38 39 39 40 41 42 43 44 45 47 48 49 49 50 50 50 51 49 47 44 41 42 43 41 40 40 39 36 35 35 33 33 33 32 32 32 32 31 27 24 23 22 22 25 25 24 26 27 25 23 22 19 18 18 18 19 18
38 39 39 39 39 40 41 40 39 39 40 42 43 44 46 46 46 47 47 44 40 38 38 39 40 40 39 39 39 39 39 40 41 42 42 43 43 45 48 49 50 51 51 52 53 52 50 49 47 46 46 45 44 43 40 37 38 39 37 36 36 35 34 31 29 28 26 25 24 22 20 23 24 24 26 26 23 22 21 19 18 18 17 16 15
37 38 38 38 39 39 40 39 39 38 38 38 40 42 44 44 44 45 46 45 42 39 39 39 39 39 39 39 39 40 40 41 42 42 41 41 42 43 44 46 48 49 51 54 55 54 53 53 52 50 48 47 46 44 41 39 39 39 37 35 35 33 30 25 24 25 25 24 25 25 22 21 21 22 23 23 22 22 22 20 18 17 16 14 13
36 36 37 38 38 38 37 38 39 39 37 35 36 38 40 41 42 43 45 45 43 42 42 40 38 38 39 40 41 40 40 41 41 42 41 40 41 42 42 43 44 46 51 53 51 51 53 54 55 54 51 49 46 45 43 41 40 39 36 33 32 32 29 22 19 23 26 27 28 28 25 22 21 22 22 21 20 20 19 18 17 15 14 13 11
35 35 36 35 36 36 36 36 37 37 36 34 33 32 33 37 40 43 44 44 44 43 42 39 38 38 38 39 40 41 41 41 40 41 40 40 41 41 41 40 39 43 50 48 43 45 49 51 54 54 52 50 48 46 45 44 42 41 40 38 35 34 31 24 22 23 25 29 32 30 26 24 24 24 22 19 17 19 18 17 16 15 12 12 13
33 33 32 31 32 33 33 34 34 34 33 33 32 31 29 30 35 40 43 42 41 40 38 37 38 39 39 38 38 39 40 40 40 40 40 41 43 43 41 38 37 44 48 43 40 43 43 45 50 53 53 52 50 47 46 45 44 44 45 43 39 37 34 30 28 23 16 21 32 32 26 25 26 25 23 16 11 15 20 19 15 14 14 14 15
Wind_Direction
186 185 181 181 171 165 166 144 141 141 134 135 103 108 117 110 113 91 128 141 79 174 218 209 183 173 166 151 160 173 174 170 166 161 154 143 144 152 161 163 164 167 167 170 174 173 172 171 171 175 180 180 183 185 181 181 182 178 173 170 165 161 159 154 153 154 157 158 155 155 153 152 152 149 141 132 133 126 127 126 114 107 88 72 51
186 187 183 181 172 162 160 154 156 145 116 108 108 104 94 91 105 93 138 170 116 137 171 171 174 183 183 164 160 167 169 163 155 154 149 143 142 145 155 160 164 171 174 176 177 177 177 177 176 178 181 180 181 184 180 182 190 188 183 181 177 172 171 168 165 165 167 170 172 174 179 182 185 183 180 182 185 196 204 207 203 201 228 268 287
182 187 183 176 173 168 167 169 169 162 147 117 122 111 84 89 80 43 56 185 161 143 155 152 165 182 184 181 170 167 166 155 149 152 151 149 145 142 149 153 159 169 175 180 182 183 184 182 182 182 184 183 180 180 179 181 190 192 190 188 185 182 181 177 176 176 176 184 187 191 199 202 205 210 212 214 219 226 231 239 245 253 264 269 277
175 179 179 171 173 181 179 178 173 168 161 136 130 118 164 131 70 50 51 139 142 145 159 167 187 207 209 234 209 178 170 156 148 151 153 156 151 146 147 148 154 165 173 180 184 187 189 187 186 186 187 185 181 181 182 183 189 192 192 192 190 193 193 188 186 186 188 197 201 205 216 224 230 238 244 248 250 253 255 263 269 276 278 277 280
171 171 178 175 176 185 182 178 170 162 156 145 134 102 191 185 77 89 55 42 121 145 171 205 218 231 235 251 181 171 168 155 149 148 150 159 159 154 151 150 154 163 171 177 183 186 189 190 189 189 190 188 184 184 184 185 192 193 192 194 195 199 203 201 198 197 199 207 213 218 228 241 252 257 263 268 270 270 270 279 286 291 294 291 289
168 166 170 173 176 177 176 181 171 167 163 145 86 105 151 128 65 65 80 106 130 145 200 223 222 185 122 108 128 148 156 150 145 142 144 154 163 164 160 159 160 163 169 172 179 182 184 190 191 191 191 191 189 187 187 187 195 198 194 197 202 203 206 208 207 207 209 214 219 225 234 247 262 268 270 275 277 279 282 289 296 300 302 300 298
172 169 165 168 176 176 180 185 175 182 182 154 160 118 119 118 82 68 112 139 153 166 182 186 206 145 117 109 119 132 141 144 142 138 140 151 161 168 169 169 167 166 168 171 177 177 178 184 191 194 193 193 192 191 191 189 195 204 200 197 202 208 207 208 211 212 215 219 222 226 235 245 258 266 268 271 275 283 292 297 299 300 300 299 300
183 182 176 171 178 189 195 189 183 194 189 166 182 136 130 152 156 166 168 177 189 195 190 199 217 143 119 118 119 120 125 134 144 142 138 149 158 165 170 172 172 168 166 169 175 175 174 176 185 193 193 194 194 195 196 194 199 207 208 202 205 211 209 209 211 215 219 221 224 229 234 244 253 262 266 270 277 284 293 297 295 294 295 298 299
194 195 185 174 171 189 195 188 190 196 189 184 191 165 157 184 192 172 176 188 222 233 229 247 180 129 117 119 122 121 123 126 136 139 139 154 163 165 167 170 172 170 165 161 162 168 171 173 180 185 188 192 193 195 198 199 202 208 211 209 210 214 214 213 214 217 222 225 229 234 236 245 253 260 268 274 283 289 293 295 290 287 290 294 297
197 199 189 174 168 190 190 185 194 199 200 198 193 189 181 186 185 175 180 185 273 134 144 114 121 118 109 113 120 122 124 122 128 135 139 154 166 169 169 172 173 171 172 164 154 163 171 172 177 182 184 187 191 194 198 199 200 204 211 215 214 214 215 216 218 220 224 228 232 235 237 244 251 256 268 276 282 286 289 292 290 288 289 291 291
196 199 190 175 171 189 189 186 197 201 204 201 191 186 175 177 190 185 178 173 70 115 107 96 111 115 108 113 116 115 121 127 137 145 139 146 162 167 167 167 167 172 183 181 170 172 173 171 173 179 183 186 190 193 195 198 199 202 210 215 215 213 214 215 219 224 225 227 231 234 234 240 249 252 261 269 272 278 285 293 296 294 293 291 289
199 199 192 181 174 179 190 193 197 200 204 199 187 181 176 185 198 179 166 154 138 133 109 108 115 116 116 120 119 119 130 136 142 151 143 144 154 159 162 161 161 172 183 182 177 178 173 172 171 173 179 179 181 188 193 196 198 204 208 211 213 213 215 215 219 226 224 224 230 234 233 235 243 248 254 260 262 272 281 289 293 293 294 294 296
203 199 196 190 179 177 197 204 201 205 207 194 177 182 189 190 187 172 163 155 163 165 156 163 141 118 125 132 131 134 147 147 150 158 156 152 152 154 159 160 165 174 180 179 177 180 176 176 173 171 178 175 173 179 186 193 197 204 208 208 211 212 214 214 217 228 225 219 226 232 229 228 235 244 249 252 256 266 274 278 280 287 298 305 316
205 199 200 197 184 180 196 206 207 208 207 195 179 185 198 193 187 178 169 164 182 187 166 157 152 142 137 134 131 135 157 161 164 171 169 162 158 161 165 164 164 166 173 179 173 173 177 179 176 174 178 178 176 176 180 189 194 203 208 206 210 213 214 213 213 226 227 211 214 222 222 222 228 238 243 246 251 252 254 261 266 281 321 359 11
208 203 202 201 191 185 191 205 212 209 207 203 190 193 205 200 188 182 178 176 179 182 171 149 157 162 143 124 141 129 157 185 189 183 177 172 171 175 173 171 168 161 166 176 170 164 171 178 181 177 178 181 179 177 181 186 192 203 208 205 209 212 212 216 215 221 220 203 202 208 213 220 225 230 235 235 228 215 207 194 134 92 74 94 102
209 205 203 204 199 193 195 205 210 210 210 207 202 204 209 204 193 187 180 175 176 182 191 171 162 163 140 108 152 113 138 219 199 182 175 168 166 164 161 164 170 170 171 174 169 158 156 172 185 180 181 188 183 180 184 185 192 200 201 205 211 208 203 207 208 204 199 197 202 206 209 218 218 217 215 200 176 155 139 128 112 98 88 85 84
210 206 204 205 204 200 202 207 210 212 211 209 211 212 209 204 199 191 180 178 189 184 177 162 155 161 150 121 104 109 212 202 176 177 166 154 152 153 158 159 157 167 176 176 168 155 150 163 174 174 178 190 196 198 188 179 188 191 188 195 200 199 196 195 191 183 183 189 195 192 190 194 184 175 170 148 134 125 115 115 112 105 101 88 76
211 208 207 207 206 204 205 208 210 211 212 212 213 212 208 203 201 193 182 184 192 176 165 159 153 171 178 153 34 263 219 161 149 119 135 139 144 155 174 176 152 158 171 171 162 158 166 167 161 155 156 173 198 208 192 184 194 189 184 187 183 187 190 181 170 166 171 175 173 167 162 163 158 152 149 142 135 125 107 95 96 94 91 81 60
210 209 209 208 206 207 208 208 207 208 212 215 213 213 212 203 201 194 183 185 191 179 171 169 164 184 200 197 357 352 61 125 150 136 112 128 144 157 173 191 181 174 175 173 170 171 175 173 168 161 153 160 182 198 191 191 196 179 179 186 178 180 181 173 164 159 162 164 158 156 155 150 151 147 143 147 141 120 92 68 63 46 40 31 17
211 209 209 208 206 208 210 208 207 209 212 216 215 215 212 202 200 194 184 192 198 187 181 178 171 183 195 196 27 85 88 108 140 141 130 137 153 164 183 213 212 197 189 184 184 185 176 173 176 171 168 175 177 175 182 198 192 172 180 191 183 180 178 176 170 164 164 165 161 160 157 153 150 146 141 138 129 112 57 18 2 352 353 349 348
211 210 209 209 207 208 211 208 209 211 212 216 215 213 210 203 200 194 190 202 202 190 185 183 181 179 181 185 186 153 134 117 136 139 127 141 179 195 192 211 227 218 213 200 191 189 178 175 178 173 170 183 186 172 171 220 205 185 194 194 187 183 183 183 178 175 174 173 173 171 167 165 158 151 149 138 128 126 351 341 337 336 336 333 333
208 207 209 209 208 210 211 208 210 213 212 214 212 211 210 203 199 193 192 205 204 196 188 182 185 180 177 182 179 173 174 155 157 164 146 141 169 213 197 198 217 231 224 204 195 193 184 180 182 177 174 187 196 187 183 211 203 193 200 194 188 186 186 188 184 186 190 190 194 195 195 198 196 199 205 222 261 283 298 304 309 310 310 311 312
207 205 208 209 209 211 213 211 211 213 212 212 210 212 210 202 199 196 198 208 208 203 193 183 186 186 187 194 188 182 184 179 186 189 187 175 163 221 216 202 208 224 215 188 186 189 189 190 187 181 183 194 203 199 197 204 190 185 193 193 197 196 197 200 198 200 203 206 214 215 220 223 229 239 249 266 277 289 296 299 304 304 304 305 303
206 206 206 209 210 210 213 213 211 211 212 212 210 211 211 202 198 201 205 211 209 205 199 192 193 190 191 198 195 194 196 197 202 197 202 210 200 214 232 211 203 218 208 180 179 186 189 194 194 194 201 204 205 204 208 214 205 202 206 207 212 210 210 212 212 214 215 218 224 228 234 236 242 252 259 270 277 284 290 294 299 301 301 299 297
204 205 204 207 210 209 211 212 212 210 209 211 210 209 212 207 202 205 209 210 208 206 204 200 198 191 188 195 198 199 200 200 204 209 219 219 206 210 243 219 169 184 188 177 180 189 191 195 201 210 215 210 207 208 215 221 217 221 229 226 223 221 222 223 223 227 227 231 235 238 244 245 250 255 259 266 272 277 282 286 291 294 295 294 291
204 205 204 205 210 211 211 213 213 211 208 208 209 209 213 212 208 209 211 210 210 210 209 206 203 194 189 195 199 195 196 202 207 217 231 226 214 215 233 194 156 168 175 175 179 186 193 202 213 221 218 210 208 211 218 225 226 231 240 240 234 229 230 231 234 238 240 244 247 249 253 255 257 261 264 269 273 278 283 286 290 291 291 290 287
205 205 205 205 209 212 213 214 213 212 209 208 208 208 212 216 214 212 213 211 212 214 214 212 207 200 194 197 201 195 194 204 213 220 234 234 226 221 211 175 147 173 184 184 189 197 203 211 221 226 222 213 211 214 220 225 229 236 242 244 243 238 235 238 242 247 250 253 255 254 257 259 262 266 269 275 279 283 286 289 292 293 293 291 289
205 205 206 206 208 211 213 215 213 212 212 211 211 208 209 215 216 213 214 214 213 215 216 215 211 207 202 200 203 202 200 209 219 221 229 235 233 228 214 194 172 176 208 202 211 219 220 220 222 226 224 222 222 221 223 228 233 237 240 242 243 240 240 243 248 252 254 256 258 258 259 261 263 266 270 276 280 284 288 291 294 297 298 298 296
206 206 207 208 209 210 212 214 213 212 213 213 214 211 208 213 216 214 216 216 215 217 218 218 215 213 211 206 205 206 206 212 220 219 224 232 231 230 224 212 194 176 178 213 227 225 224 224 226 227 223 224 228 226 223 229 235 238 244 244 242 241 244 248 253 255 255 257 258 259 260 261 263 266 269 274 279 284 289 293 297 299 299 298 298
208 207 207 209 210 211 212 214 213 212 213 214 215 214 210 211 215 216 217 216 216 217 219 221 219 216 216 213 210 209 209 214 218 216 220 230 229 225 223 221 213 199 186 187 224 227 224 226 227 228 225 224 225 224 223 227 232 237 243 245 245 246 249 252 255 259 260 258 256 258 260 262 263 264 267 272 278 284 289 292 296 298 299 298 298
208 208 208 209 210 211 212 213 213 212 213 214 214 214 213 212 214 216 217 216 216 217 219 221 221 218 218 218 216 213 212 216 219 217 219 228 229 223 217 216 217 215 207 193 208 231 226 229 231 231 233 229 222 220 223 227 233 239 241 242 246 250 253 254 253 257 260 257 254 256 261 264 264 264 266 271 276 281 286 292 296 299 299 299 299
207 208 209 209 209 210 211 212 212 212 212 213 214 214 213 213 214 215 216 216 216 218 219 221 222 221 219 220 221 219 216 218 221 220 220 227 229 225 221 217 215 219 219 211 211 232 230 233 239 237 238 233 222 218 223 228 233 238 241 242 245 247 250 251 249 251 254 253 252 257 263 266 266 265 266 268 273 277 282 289 296 299 299 298 302
206 207 208 209 209 210 210 211 211 211 211 211 213 213 213 214 214 215 215 215 216 218 219 220 221 222 221 221 224 225 222 222 224 222 221 225 230 229 227 224 220 219 221 219 220 233 237 234 236 241 237 228 219 218 223 228 231 233 236 240 242 244 248 251 252 252 252 251 254 259 263 265 264 263 262 265 269 272 279 288 294 295 291 291 302
206 207 207 208 209 209 209 211 211 211 211 211 212 212 213 213 214 214 214 215 216 217 218 220 220 220 222 223 224 226 226 226 226 225 223 223 227 230 229 228 227 224 223 223 222 227 236 234 230 234 231 221 217 218 222 226 231 232 231 233 236 241 247 251 254 255 252 250 254 258 259 256 254 255 256 261 265 269 275 282 287 286 279 278 294
207 208 209 209 209 209 209 210 210 210 212 212 212 213 214 213 213 213 213 214 215 216 217 219 220 219 220 222 225 225 225 227 227 227 225 223 226 230 230 229 229 228 225 225 224 224 231 234 232 229 222 216 217 221 226 228 232 233 231 231 235 240 245 249 253 256 253 250 252 255 253 248 247 249 253 257 263 268 272 277 283 282 273 273 291
208 209 210 210 210 210 209 209 209 210 212 213 214 214 216 215 214 214 213 214 215 216 218 219 220 219 219 221 224 224 223 224 227 228 227 226 227 229 230 230 230 230 228 227 228 229 230 234 235 232 227 222 222 226 230 230 230 231 231 232 235 239 243 247 251 255 255 253 252 253 252 250 248 249 251 255 261 265 268 274 281 280 273 276 292
210 210 210 210 211 211 210 210 211 211 212 214 215 215 217 217 216 215 214 214 216 217 219 220 220 220 220 221 223 224 222 222 224 227 227 228 228 228 230 230 230 230 229 228 230 231 231 233 237 236 234 234 233 230 228 227 225 227 229 232 235 238 241 244 247 252 254 252 251 251 252 251 248 247 250 254 258 262 267 273 278 278 278 283 291
210 211 211 210 211 212 213 213 213 213 214 215 216 217 217 217 217 217 217 216 217 218 219 221 221 221 222 223 224 223 221 221 223 224 226 227 227 227 228 229 230 229 228 228 229 230 230 233 236 238 236 236 237 235 233 229 224 223 225 228 232 236 238 240 242 244 247 247 247 248 250 250 248 247 249 252 256 261 265 269 274 278 280 282 284
209 210 211 212 212 213 215 215 215 215 215 215 217 217 217 217 217 217 218 219 219 220 221 222 223 223 224 225 225 224 223 223 223 224 225 226 226 226 227 228 229 227 225 226 226 226 228 230 232 234 234 234 235 236 237 234 228 227 227 225 225 229 233 236 238 238 239 241 244 247 250 252 251 250 251 253 256 259 262 266 272 277 277 274 271
210 211 212 212 213 214 216 216 216 216 217 217 217 217 217 217 217 218 219 220 220 221 222 224 224 225 226 226 226 226 226 226 226 226 226 225 225 226 227 227 227 227 224 222 222 223 225 226 227 229 231 231 232 233 234 228 223 224 226 225 224 227 229 231 234 236 237 238 241 246 249 250 248 248 249 251 252 254 257 262 267 270 269 265 261
212 213 213 214 215 215 216 217 217 217 218 218 218 217 217 217 217 218 219 220 221 222 222 224 225 226 227 227 228 229 229 229 229 229 228 228 226 226 226 225 225 225 224 222 220 220 221 223 225 225 225 227 227 227 224 220 219 222 225 225 227 231 233 233 234 236 237 239 241 244 248 248 246 246 246 248 250 251 253 258 264 266 265 262 259
212 213 214 214 216 216 216 217 217 218 219 220 220 219 218 218 218 218 219 220 222 222 223 224 225 227 228 229 230 231 231 232 232 231 231 230 230 230 229 226 224 223 223 222 220 220 220 222 223 221 221 225 226 223 223 224 225 226 224 222 225 230 232 234 237 237 237 238 239 241 246 247 246 247 247 249 250 249 252 260 266 267 264 261 261
212 212 212 214 216 217 216 216 217 218 220 221 221 221 221 220 220 219 220 221 222 223 224 224 225 227 229 230 231 232 232 233 233 234 234 233 232 232 232 231 229 226 224 222 221 221 221 223 225 221 220 226 227 224 225 227 227 226 225 223 223 224 222 223 232 236 234 233 234 236 242 245 245 246 249 251 252 252 257 265 268 265 262 263 261
211 210 211 213 215 216 216 217 217 219 221 222 222 222 222 222 222 222 222 223 223 223 224 225 227 228 229 230 231 231 232 232 233 233 234 234 234 234 234 234 234 233 230 227 225 223 221 222 224 223 223 228 229 226 225 225 225 227 226 224 222 222 221 221 226 231 232 230 228 230 237 241 241 242 247 250 251 254 260 264 264 260 260 263 261
210 210 211 213 215 216 216 216 218 220 222 223 223 223 224 224 224 224 224 225 225 225 225 226 228 228 229 229 230 231 232 233 233 232 232 233 234 235 235 235 235 235 235 233 232 230 226 223 222 225 227 227 228 229 227 222 222 223 223 222 222 222 221 222 227 232 233 228 223 225 232 237 235 235 240 245 248 253 258 259 257 257 259 261 257
211 211 212 213 215 216 216 217 219 221 223 224 224 224 224 225 225 225 226 227 228 228 229 229 230 230 230 229 229 231 232 232 233 232 231 231 231 232 233 233 233 235 235 235 234 233 230 228 226 229 231 230 229 232 229 223 220 220 219 219 220 221 222 226 232 235 233 228 223 220 227 234 233 230 236 243 247 250 251 251 252 254 256 254 248
212 213 214 215 216 217 218 219 220 222 224 225 225 225 225 226 226 227 227 228 230 232 233 234 234 234 233 232 232 232 232 233 233 232 231 230 229 230 230 231 232 234 234 235 234 232 231 231 231 233 235 235 234 234 231 225 223 224 224 225 225 225 225 227 230 231 229 226 222 216 221 232 231 229 237 247 250 249 249 249 249 246 244 240 236
214 215 216 217 218 219 220 220 222 224 226 226 226 227 227 226 226 227 227 228 231 233 235 236 237 237 236 236 235 235 235 235 235 235 233 231 229 229 230 230 231 233 235 236 237 235 233 233 234 235 236 237 237 236 232 227 225 226 226 227 226 222 218 217 218 218 217 217 215 212 217 228 229 229 239 248 249 249 251 246 235 226 225 227 233
215 216 218 219 220 221 221 221 223 226 228 228 229 229 228 227 226 226 226 228 231 234 236 238 239 240 239 238 237 237 238 238 238 237 236 234 231 230 230 231 231 233 236 238 238 237 236 236 237 237 237 237 238 237 234 230 228 225 220 218 217 211 206 206 207 208 208 210 211 210 212 220 224 228 236 244 245 245 242 232 219 214 218 227 244
216 217 219 221 222 223 223 224 225 228 230 231 232 233 231 228 226 225 225 226 229 233 236 238 240 241 242 242 241 240 240 241 241 240 239 236 234 232 232 232 231 234 238 237 236 237 238 238 239 239 238 238 238 237 236 232 229 225 219 216 214 206 202 203 202 201 206 211 212 207 206 214 222 224 225 229 234 234 228 220 217 219 226 238 249
219 220 221 222 224 225 226 227 228 230 232 233 234 235 235 231 228 226 224 225 228 231 234 237 240 242 243 244 244 243 243 244 243 243 242 239 236 235 235 233 234 237 240 237 235 236 236 235 236 236 236 236 236 235 235 232 229 225 222 220 215 207 203 203 199 193 198 213 212 206 202 209 217 219 215 207 211 223 220 216 219 227 234 239 241